Regional Weather Roundup
Issued by NWS Grand Forks, ND

Home | Current Version | Previous Version | Text Only | Print | Product List | Glossary On
Versions: 1 2 3 4 5 6 7 8 9 10 11 12 13 14 15 16 17 18 19 20 21 22 23 24 25 26 27 28 29 30 31 32 33 34 35 36 37 38 39 40 41 42 43 44 45 46 47 48 49 50
000
ASUS43 KFGF 262131
RWRFGF
PRAIRIE TO PINES  WEATHER ROUNDUP
NATIONAL WEATHER SERVICE EASTERN NORTH DAKOTA/GRAND FORKS ND
400 PM CDT SAT MAY 26 2018

 **SATELLITE DATA USED TO AUGMENT SKY COVER AT AUTOMATED STATIONS**
 *****  WEATHER ACROSS EASTERN NORTH DAKOTA  *****

CITY           SKY/WX    TMP DP  RH WIND       PRES   REMARKS
GRAND FORKS    FAIR      91  53  27 W13G28    29.65S
GRAND FRKS AFB FAIR      90  52  27 W14G25    29.67S
GRAND FRKS NWS   N/A     91  53  26 NW5       29.63F
DEVILS LAKE    FAIR      87  50  27 NW16      29.72S
FARGO          FAIR      93  48  21 W22G28    29.67S
WAHPETON ARPT  FAIR      93  36  13 NW15G23   29.69S
$$

 ***** WEATHER ACROSS CENTRAL AND WESTERN NORTH DAKOTA  *****

CITY           SKY/WX    TMP DP  RH WIND       PRES   REMARKS
BISMARCK       FAIR      92  50  23 SW6       29.73F
MINOT          FAIR      92  43  18 W14       29.70F
JAMESTOWN      FAIR      88  53  30 NW10G18   29.72S
MINOT AFB      FAIR      89  45  21 NW3       29.69S
GARRISON         N/A     90  45  21 S16       29.72S
WILLISTON      FAIR      90  45  21 CALM      29.72F
DICKINSON      FAIR      91  48  22 SE7       29.73F
HETTINGER      FAIR      88  57  34 E18       29.75F
$$

 *****  OTHER AIRPORT OBSERVATIONS IN OUR AREA  *****

CITY           SKY/WX    TMP DP  RH WIND       PRES   REMARKS
WALHALLA       FAIR      86  57  37 NW13G23   29.68R
GRAFTON AIRPOR FAIR      86  55  35 NW16G23   29.68S
VALLEY CITY AR FAIR      90  54  29 NW8G20    29.73F
CANDO          FAIR      88  48  25 NW17      29.72F
CAVALIER APRT    N/A     86  55  35 W12G18    29.67S
GWINNER          N/A     93  48  21 VRB7G15   29.70F HX  90
SHEYENNE NWR     N/A     94  48  20 W12       29.95S HX  91
ROLLA          FAIR      86  45  23 NW18      29.73F
 ***** THE ABOVE OBSERVATIONS ARE NON NWS ARE NOT QUALITY
       CONTROLLED AND MAY MIS-REPORT RAIN FOR SNOW...
$$

  *****  WEATHER ACROSS NORTHERN MINNESOTA  *****

CITY           SKY/WX    TMP DP  RH WIND       PRES   REMARKS
FLAG ISLAND    FAIR      73  61  64 CALM      29.66S
WARROAD        FAIR      79  63  57 W10       29.68S
ROSEAU         FAIR      81  61  50 W10       29.68S
HALLOCK        FAIR      84  57  39 N7G17     29.66S
THF RVR FALLS  FAIR      85  56  37 W15G22    29.69S
BAUDETTE         N/A    N/A N/A N/A MISG      29.67S
WASKISH        FAIR      79  63  57 CALM      29.68S
CROOKSTON      FAIR      90  52  27 NW21      29.67S
STEPHEN NDAWN    N/A     88  55  33 NW12        N/A
GREENBUSH NDAW   N/A     82  59  44 W12         N/A
$$
  *****  WEATHER ACROSS CENTRAL AND WEST MINNESOTA  *****

CITY           SKY/WX    TMP DP  RH WIND       PRES   REMARKS
FOSSTON        FAIR      86  48  26 W9G20     29.70S
BEMIDJI        FAIR      85  55  35 W15G21    29.70S
PARK RAPIDS    FAIR      90  47  22 NW24G38   29.69F
ELBOW LAKE     FAIR      92  49  22 W12       29.72S
WADENA         FAIR      88  52  29 W10       29.71S
DETROIT LAKES  FAIR      90  43  19 NW18G26   29.72F
MOORHEAD       FAIR      93  43  17 NW20      29.68F
FERGUS FALLS   FAIR      90  48  24 NW17      29.64F
MORRIS MN      FAIR      95  45  17 NW13      29.70F HX  91
STAPLES        FAIR      90  45  20 W16       29.71S
$$
  *****  WEATHER ELSEWHERE ACROSS MINNESOTA  *****

CITY           SKY/WX    TMP DP  RH WIND       PRES   REMARKS
DULUTH         FAIR      91  50  24 W15G23    29.66S
INTRNTL FALLS  FAIR      81  57  43 W14G20    29.66S
ELY            FAIR      77  55  47 CALM      29.68S
CLOQUET        FAIR      90  39  17 W14G22    29.67S
WHEATON        FAIR      91  39  16 SW8       29.71F
BRAINERD       FAIR      91  50  24 W15G23    29.70S
HIBBING        FAIR      84  51  31 W15G25    29.67R
ALEXANDRIA     FAIR      94  48  20 NW9       29.74S HX  90
SAINT CLOUD    FAIR      94  45  18 W17G25    29.69F HX  90
MINNEAPOLIS    FAIR      93  54  26 W9        29.69F HX  91
$$

  *****  WEATHER ACROSS SOUTH DAKOTA  *****

CITY           SKY/WX    TMP DP  RH WIND       PRES   REMARKS
SIOUX FALLS    FAIR      90  60  36 NW8       29.75F
BROOKINGS      FAIR      91  54  28 NW7       29.76F
WATERTOWN      FAIR      88  54  31 NW8       29.77S
HURON          FAIR      91  60  35 S7        29.73F HX  90
SISSETON         N/A     94  51  23 W8G20     29.70F HX  91
ABERDEEN       FAIR      97  50  20 NW6       29.72F HX  94
MITCHELL       FAIR      94  59  31 W5        29.74F HX  93
PIERRE         FAIR      91  62  37 SE15      29.72F HX  91
MOBRIDGE       FAIR      89  59  36 SE5       29.72F
RAPID CITY     FAIR      87  63  44 S14       29.74F
$$

  *****  SOME WEATHER IN NEARBY STATES *****

CITY           SKY/WX    TMP DP  RH WIND       PRES   REMARKS
GLASGOW MT     FAIR      89  52  28 SE12G22   29.70S
GREAT FALLS MT FAIR      78  47  33 VRB6G17   29.83S
CHEYENNE WY    FAIR      83  39  21 SE15      29.92F
SCOTTSBLUFF NE FAIR      92  49  22 SE16      29.78F
OMAHA NE       FAIR      99  55  23 W8        29.74F HX  97
DES MOINES IA  FAIR      95  63  34 VRB5      29.72F HX  96
DAVENPORT IA   FAIR      89  65  44 CALM      29.77F HX  91
CHICAGO IL     FAIR      89  59  36 W8        29.74F
EAU CLAIRE WI  FAIR      92  58  31 W13       29.68F HX  91
LA CROSSE WI   FAIR      91  68  46 S8        29.71F HX  95
$$

  *****  SOME NATIONAL WEATHER *****

CITY           SKY/WX    TMP DP  RH WIND       PRES   REMARKS
LA GUARDIA NY  PTSUNNY   87  67  51 S12       29.77R HX  90
RALEIGH NC     PTSUNNY   75  73  93 VRB3      29.90R
ATLANTA GA     PTSUNNY   85  67  54 VRB3      29.89F
NEW ORLEANS LA TSTM      79  72  79 S9        29.83F
OKLAHOMA CITY  PTSUNNY   90  70  51 SE9       29.82S HX  95
ALBUQUERQUE NM CLOUDY    86  20   9 SW7       29.98F
SALT LAKE CITY MOSUNNY   83  25  12 NW15      29.75F
LOS ANGELES CA FAIR      68  52  56 W14       30.01S
BOISE ID       CLOUDY    72  49  44 NW17G26   29.86R
SEATTLE WA     PTSUNNY   65  44  46 VRB5      30.18S
$$

*** WEATHER ACROSS MANITOBA...SASKATCHEWAN AND ONTARIO ***
                ***ONTARIO***

CITY           SKY/WX    TMP DP  RH WIND       PRES   REMARKS
GERALDTON      LGT RAIN  48  45  87 E10G17    29.77F
THUNDER BAY    CLOUDY    57  55  94 E13       29.69F
SIOUX LOOKOUT  CLOUDY    63  59  88 E3        29.70R
TORONTO        PTSUNNY   81  61  50 S12       29.77S
BIG TROUT LK   CLOUDY    46  36  66 SE10G17   29.80S
PICKLE LAKE    CLOUDY    46  45  93 E8        29.75S
DRYDEN         PTSUNNY   73  59  60 W6        29.67R
KENORA         PTSUNNY   72  59  64 N12       29.69S
$$
                *** MANITOBA***

CITY           SKY/WX    TMP DP  RH WIND       PRES   REMARKS
BRANDON        MOSUNNY   81  54  39 W16G22    29.71S
DAUPHIN        PTSUNNY   73  63  68 E7        29.70S
ISLAND LAKE    DRIZZLE   50  48  93 SE8       29.71R
PILOT MOUND      N/A     82  52  34 NW12G20     N/A
THE PAS        CLOUDY    57  54  88 W7        29.70S
THOMPSON       CLOUDY    52  43  71 SW7       29.70R
WINNIPEG       MOSUNNY   77  61  57 N10       29.69R
LYNN LAKE      CLOUDY    57  46  67 S9        29.63F
CHURCHILL      CLOUDY    50  39  66 S14G20    29.71F
GILLAM         LGT RAIN  50  37  62 SE6       29.73
$$
                ***SASKATCHEWAN***

CITY           SKY/WX    TMP DP  RH WIND       PRES   REMARKS
ESTEVAN        CLOUDY    88  48  25 S9        29.70F
KINDERSLEY     PTSUNNY   77  55  47 N26G36    29.65R
LLOYDMINSTER   PTSUNNY   72  39  30 NW16G24   29.72F
PRINCE ALBERT  LGT RAIN  72  57  60 SE6       29.68F
REGINA         PTSUNNY   81  54  39 W6        29.67S
YORKTON        SUNNY     81  54  39 VRB2      29.70S
N. BATTLEFORD  PTSUNNY   68  59  73 N14       29.68S
LA RONGE       LGT RAIN  63  57  82 SE7       29.67S
SASKATOON      PTSUNNY   70  59  68 E22G30    29.62F
SWIFT CURRENT  MOSUNNY   84  50  30 W14G22    29.68S
$$
NOTE: THESE ARE AUTOMATED STATIONS WITH LIMITED QUALITY CONTROL
      "FAIR" INDICATES FEW OR NO CLOUDS BELOW 12,000 FEET WITH NO
      SIGNIFICANT WEATHER AND/OR OBSTRUCTIONS TO VISIBILITY.
      SKY/WX - SKY CONDITION AND SIGNIFICANT WEATHER.
      TMP - AIR TEMPERATURE.    DP   - DEWPOINT TEMPERATURE.
      RH  - RELATIVE HUMIDITY.  PRES - PRESSURE.
      HX  - HEAT INDEX.         WCI  - WIND CHILL INDEX.
$



USA.gov is the U.S. government's official web portal to all federal, state and local government web resources and services.